LIC0015 LIBD-LEMD

Flight info

Callsign LIC0015
Flight time N/A
Altitude 37000
Route TOPNO DCT SOR DCT POKAV DCT SUPUX DCT MORSS DCT EPAMA DCT CLS DCT PRADO
Aircraft A320/M-SDE3FGHIRWY/LB1

Departure

Time 2026-04-29 14:18
Airport Bari Karol Wojtyła International Airport (LIBD)

Arrival

Time N/A
Airport Adolfo Suárez Madrid–Barajas Airport (LEMD)
Time Latitude Longitude Altitude Speed Heading
2026-04-29 14:07 41.13622 16.76161 142 ft 0 kts 16°
2026-04-29 14:13 41.13627 16.76154 142 ft 3 kts 309°
2026-04-29 14:13 41.13621 16.76087 143 ft 7 kts 264°
2026-04-29 14:13 41.13621 16.76032 144 ft 5 kts 274°
2026-04-29 14:14 41.13629 16.75953 147 ft 21 kts 277°
2026-04-29 14:14 41.13617 16.75876 151 ft 13 kts 253°
2026-04-29 14:14 41.13591 16.75777 153 ft 10 kts 249°
2026-04-29 14:14 41.13556 16.75670 157 ft 18 kts 245°
2026-04-29 14:15 41.13514 16.75528 158 ft 15 kts 250°
2026-04-29 14:15 41.13481 16.75406 159 ft 14 kts 250°
2026-04-29 14:15 41.13449 16.75294 160 ft 12 kts 249°
2026-04-29 14:15 41.13423 16.75205 163 ft 8 kts 248°
2026-04-29 14:16 41.13406 16.75150 165 ft 7 kts 248°
2026-04-29 14:16 41.13380 16.75065 168 ft 13 kts 248°
2026-04-29 14:16 41.13341 16.74931 172 ft 16 kts 261°
2026-04-29 14:16 41.13363 16.74807 173 ft 14 kts 302°
2026-04-29 14:17 41.13441 16.74745 170 ft 15 kts
2026-04-29 14:17 41.13521 16.74898 165 ft 41 kts 66°
2026-04-29 14:17 41.13724 16.75601 155 ft 118 kts 69°
2026-04-29 14:17 41.14083 16.76859 320 ft 165 kts 69°
2026-04-29 14:18 41.14506 16.78393 946 ft 189 kts 70°
2026-04-29 14:18 41.14987 16.80135 1621 ft 213 kts 70°
2026-04-29 14:18 41.15529 16.82083 2244 ft 238 kts 71°
2026-04-29 14:18 41.16127 16.84219 3049 ft 254 kts 70°
2026-04-29 14:19 41.16755 16.86449 4034 ft 261 kts 70°
2026-04-29 14:19 41.17406 16.88743 5067 ft 267 kts 70°
2026-04-29 14:19 41.18071 16.91074 6117 ft 273 kts 69°
2026-04-29 14:19 41.18628 16.93503 7111 ft 278 kts 81°
2026-04-29 14:20 41.18725 16.96080 8099 ft 282 kts 91°
2026-04-29 14:20 41.18634 16.98700 9083 ft 287 kts 98°
2026-04-29 14:20 41.18086 17.01257 10046 ft 291 kts 115°
2026-04-29 14:20 41.17002 17.03543 10926 ft 294 kts 132°
2026-04-29 14:21 41.15546 17.05463 11821 ft 297 kts 138°
2026-04-29 14:21 41.14029 17.07354 12718 ft 301 kts 142°
2026-04-29 14:21 41.12192 17.08662 13562 ft 302 kts 168°
2026-04-29 14:21 41.10117 17.08818 14364 ft 300 kts 193°
2026-04-29 14:22 41.08197 17.07821 15156 ft 297 kts 217°
2026-04-29 14:22 41.06688 17.05977 15994 ft 296 kts 229°
2026-04-29 14:22 41.05252 17.04000 16828 ft 298 kts 229°
2026-04-29 14:22 41.03966 17.01855 17673 ft 298 kts 241°
2026-04-29 14:23 41.03091 16.99346 18289 ft 308 kts 253°
2026-04-29 14:23 41.02693 16.96466 18440 ft 330 kts 264°
2026-04-29 14:23 41.02455 16.93382 18594 ft 350 kts 264°
2026-04-29 14:23 41.02192 16.90131 19062 ft 359 kts 264°
2026-04-29 14:24 41.01913 16.86785 19676 ft 363 kts 264°
2026-04-29 14:24 41.01631 16.83489 20308 ft 366 kts 264°
2026-04-29 14:24 41.01336 16.80075 20951 ft 369 kts 264°
2026-04-29 14:24 41.01045 16.76730 21560 ft 373 kts 264°
2026-04-29 14:25 41.00741 16.73264 22178 ft 376 kts 264°
2026-04-29 14:25 41.00442 16.69854 22773 ft 379 kts 264°
2026-04-29 14:25 41.00137 16.66368 23351 ft 383 kts 264°
2026-04-29 14:25 40.99831 16.62847 23874 ft 386 kts 264°
2026-04-29 14:26 40.99523 16.59302 24354 ft 389 kts 264°
2026-04-29 14:26 40.99212 16.55734 24834 ft 392 kts 264°
2026-04-29 14:26 40.98896 16.52135 25278 ft 395 kts 264°
2026-04-29 14:26 40.98576 16.48500 25734 ft 398 kts 264°
2026-04-29 14:27 40.98254 16.44850 26194 ft 401 kts 264°
2026-04-29 14:27 40.97927 16.41164 26655 ft 403 kts 264°
2026-04-29 14:27 40.97596 16.37463 27104 ft 406 kts 263°
2026-04-29 14:28 40.96925 16.29994 27976 ft 412 kts 263°
2026-04-29 14:28 40.96584 16.26210 28418 ft 415 kts 263°
2026-04-29 14:28 40.96237 16.22407 28856 ft 417 kts 263°
2026-04-29 14:28 40.95888 16.18575 29275 ft 420 kts 263°
2026-04-29 14:29 40.95536 16.14725 29686 ft 423 kts 263°
2026-04-29 14:29 40.95143 16.10854 30073 ft 426 kts 259°
2026-04-29 14:29 40.94429 16.07032 30398 ft 428 kts 256°
2026-04-29 14:29 40.93660 16.03219 30727 ft 430 kts 256°
2026-04-29 14:30 40.92885 15.99388 31055 ft 432 kts 256°
2026-04-29 14:30 40.92104 15.95530 31355 ft 435 kts 256°
2026-04-29 14:30 40.91321 15.91651 31693 ft 437 kts 256°
2026-04-29 14:30 40.90539 15.87781 32157 ft 435 kts 256°
2026-04-29 14:31 40.89760 15.83921 32633 ft 433 kts 256°
2026-04-29 14:31 40.88997 15.80130 33082 ft 432 kts 256°
2026-04-29 14:31 40.88224 15.76304 33533 ft 431 kts 256°
2026-04-29 14:31 40.87450 15.72479 33991 ft 430 kts 256°
2026-04-29 14:32 40.86681 15.68665 34412 ft 428 kts 256°
2026-04-29 14:32 40.85916 15.64865 34819 ft 427 kts 256°
2026-04-29 14:32 40.85148 15.61076 35207 ft 425 kts 256°
2026-04-29 14:32 40.84378 15.57303 35598 ft 424 kts 256°
2026-04-29 14:33 40.83605 15.53546 35960 ft 423 kts 256°
2026-04-29 14:33 40.82830 15.49801 36318 ft 422 kts 256°
2026-04-29 14:33 40.82057 15.46066 36662 ft 421 kts 256°
2026-04-29 14:33 40.81285 15.42337 36968 ft 421 kts 256°
2026-04-29 14:34 40.80515 15.38614 37036 ft 419 kts 256°
2026-04-29 14:34 40.78982 15.31216 37040 ft 417 kts 256°
2026-04-29 14:35 40.77460 15.23870 37035 ft 416 kts 256°
2026-04-29 14:35 40.75925 15.16499 37037 ft 416 kts 256°
2026-04-29 14:36 40.74383 15.09137 37044 ft 416 kts 256°
2026-04-29 14:36 40.72830 15.01769 37046 ft 416 kts 256°
2026-04-29 14:37 40.71281 14.94421 37056 ft 416 kts 256°
2026-04-29 14:37 40.69727 14.87068 37059 ft 416 kts 256°
2026-04-29 14:38 40.68173 14.79724 37060 ft 415 kts 255°
2026-04-29 14:38 40.66616 14.72398 37057 ft 415 kts 255°
2026-04-29 14:39 40.65050 14.65063 37053 ft 415 kts 255°
2026-04-29 14:39 40.63484 14.57774 37048 ft 416 kts 255°
2026-04-29 14:40 40.61913 14.50431 37044 ft 416 kts 255°
2026-04-29 14:40 40.60332 14.43108 37047 ft 416 kts 255°
2026-04-29 14:41 40.58827 14.35773 37047 ft 415 kts 261°
2026-04-29 14:41 40.58769 14.28232 37050 ft 413 kts 277°
2026-04-29 14:42 40.59541 14.20729 37045 ft 414 kts 277°
2026-04-29 14:42 40.60278 14.13226 37049 ft 414 kts 277°
2026-04-29 14:43 40.61009 14.05712 37052 ft 413 kts 277°
2026-04-29 14:43 40.61748 13.98192 37054 ft 413 kts 277°